Theta_e
308 307 307 307 307 307 307 307 307 307 307 307 307 307 308 308 311 319 328 323 323 321 319 318 320 321 323 324 326 326 332 333 336 340 341 339 338 336 334 336 337 338 339 339 337
307 307 307 307 306 306 306 307 307 307 307 307 307 307 308 308 312 319 324 322 320 317 317 317 318 322 321 323 324 324 328 333 336 337 338 338 336 336 339 335 335 347 339 339 338
307 307 307 307 307 307 307 306 307 307 307 307 307 308 308 309 322 325 323 320 318 316 316 319 323 323 321 323 325 325 335 336 337 336 336 336 337 338 339 338 335 346 340 340 338
307 307 307 307 307 307 307 307 307 307 307 307 307 307 310 320 327 325 319 319 317 316 317 321 323 322 323 325 326 334 336 337 338 336 336 338 336 339 340 339 339 341 339 338 341
306 306 307 307 307 307 307 307 307 307 307 307 307 308 313 325 327 322 316 318 317 316 319 320 322 322 324 328 331 333 336 334 335 333 333 336 338 342 341 338 344 341 339 339 337
307 307 308 308 308 308 307 307 308 308 308 307 307 308 319 323 324 322 321 318 319 319 321 320 322 324 326 330 330 334 334 334 335 334 333 338 338 341 339 338 348 345 344 342 343
307 307 308 308 308 308 308 308 308 308 308 307 307 309 317 321 323 322 320 321 322 321 321 324 326 323 324 330 330 331 334 335 336 337 333 334 340 345 344 343 345 345 345 346 347
308 308 308 308 308 308 308 308 308 308 308 307 307 310 322 326 323 323 320 320 323 324 324 326 326 324 326 329 331 332 332 334 336 337 336 336 344 344 341 342 346 348 348 348 345
309 309 309 308 308 308 308 308 308 308 309 309 316 321 328 324 321 322 323 321 323 324 325 326 326 325 327 330 331 331 336 336 335 336 338 340 344 341 341 343 347 348 350 346 344
309 309 309 309 308 308 309 309 311 315 315 318 319 320 323 324 324 324 323 324 324 324 324 325 325 325 327 328 331 336 337 337 337 340 336 338 341 341 340 341 337 336 340 343 342
310 310 310 309 308 308 309 312 321 321 315 323 325 325 324 325 326 326 326 327 327 326 327 327 326 325 326 330 331 335 336 337 335 339 340 342 341 340 338 337 336 344 344 342 341
311 310 310 310 309 308 308 316 319 319 318 320 319 321 323 325 325 325 328 328 328 327 327 327 327 329 330 331 330 330 332 332 339 338 339 341 340 338 340 342 340 334 339 344 337
312 310 311 310 309 309 309 315 318 319 319 323 323 322 323 324 325 326 327 327 329 328 328 328 330 331 328 330 330 331 334 336 340 339 338 340 343 338 340 335 335 334 332 338 336
312 310 311 310 314 317 319 320 319 320 322 327 323 322 323 324 327 328 328 327 328 328 328 329 331 330 330 331 327 330 337 338 340 339 342 338 347 339 339 337 335 332 332 334 333
313 310 311 310 309 313 319 320 320 321 335 324 321 324 324 324 328 328 328 327 327 328 328 331 331 331 332 331 330 334 336 337 339 340 342 343 342 341 341 340 339 337 335 330 327
313 311 311 314 317 313 317 318 322 325 334 323 322 323 324 324 326 328 328 328 327 327 327 328 331 332 331 332 331 331 335 338 335 339 347 345 347 345 345 343 339 339 333 330 326
313 313 310 311 321 318 318 321 325 328 329 322 324 322 323 325 326 328 327 327 328 330 330 332 329 328 328 328 329 326 327 333 340 346 348 343 345 345 337 338 338 337 332 326 324
315 313 313 312 313 317 319 325 332 329 328 325 324 322 323 325 325 327 328 327 328 329 331 334 335 332 331 329 329 328 331 336 341 337 343 342 348 343 338 335 336 332 328 326 324
314 318 323 318 313 315 321 329 334 333 330 327 324 321 322 324 325 327 329 329 328 328 336 337 337 334 330 330 331 334 334 331 330 334 339 346 344 341 337 336 334 331 330 328 324
312 318 321 324 320 316 324 328 330 331 330 329 329 324 325 323 324 327 327 330 332 335 334 336 340 337 332 331 332 334 332 335 329 335 344 347 348 347 340 338 335 334 332 329 323
317 325 321 319 317 321 325 326 328 330 330 330 330 331 328 326 325 326 328 327 330 335 335 335 337 339 337 337 336 328 331 332 332 336 338 349 347 342 340 338 335 332 330 325 322
323 328 323 318 319 321 322 325 325 329 329 328 329 331 333 329 326 327 330 336 329 330 334 336 336 340 338 336 335 336 332 331 331 333 339 342 345 339 339 337 332 331 328 326 323
322 324 322 319 319 318 322 323 323 325 328 328 328 331 334 330 329 330 337 335 331 342 339 341 334 336 337 336 337 339 331 333 334 336 339 342 342 336 338 337 336 330 330 326 324
323 329 325 321 319 324 327 332 326 327 328 330 329 329 333 330 330 335 336 334 335 339 336 343 335 339 335 335 333 337 332 332 332 336 333 339 341 342 341 339 337 333 330 324 324
324 329 332 324 322 321 327 332 333 330 327 328 332 329 329 333 333 331 337 336 338 332 336 337 333 334 338 337 332 329 330 332 330 331 336 342 341 338 339 334 334 332 329 324 324
328 332 331 332 323 323 325 332 333 329 330 332 333 335 330 335 334 336 335 335 337 336 340 339 341 340 338 337 336 332 331 332 332 333 339 341 341 336 337 334 333 331 326 325 324
322 324 333 333 332 325 326 332 331 329 330 333 332 333 336 332 331 330 332 334 337 333 338 341 339 338 339 336 339 339 336 334 331 334 336 336 336 331 334 335 331 329 327 325 325
Wind_Speed
12 13 14 15 15 16 16 17 18 19 21 23 24 25 28 30 32 10 5 3 4 7 10 11 14 21 22 13 14 7 2 2 17 11 8 10 3 17 6 4 3 8 14 23 32
12 14 15 15 16 16 17 17 19 20 21 23 25 26 28 32 27 12 11 8 8 7 7 8 10 13 6 10 7 6 5 5 16 16 18 13 15 9 9 8 3 20 23 31 31
13 14 15 16 16 17 17 17 18 19 21 23 24 26 27 27 5 2 6 5 5 6 8 10 19 10 10 7 6 8 12 18 19 19 17 10 7 7 6 6 2 16 18 24 39
14 14 15 16 17 18 18 17 18 18 20 21 24 26 27 4 4 2 3 3 2 5 5 12 8 9 7 11 6 23 20 19 14 14 10 10 7 6 6 9 13 17 9 19 13
14 15 16 16 18 18 17 17 17 17 18 19 21 23 11 5 8 2 3 5 5 5 7 5 10 10 7 9 14 21 21 10 9 14 9 12 17 13 7 14 16 19 19 13 10
15 16 16 18 18 18 17 16 16 16 16 17 19 20 5 4 1 3 2 4 7 9 7 12 9 8 5 7 12 13 16 11 5 3 3 8 10 11 4 15 19 18 17 14 14
14 16 18 18 17 17 16 15 15 15 15 15 16 14 5 11 6 5 3 9 8 17 8 21 20 10 8 6 8 14 13 6 3 3 2 5 8 21 19 19 19 21 17 17 22
14 16 18 17 16 16 16 15 15 15 15 14 14 5 7 8 8 9 8 12 13 15 18 19 19 6 3 5 7 8 4 5 3 4 4 3 4 11 18 19 19 19 18 15 11
14 16 17 16 15 16 15 16 15 16 14 12 5 2 9 11 6 13 11 12 11 13 16 18 10 5 7 2 5 9 1 5 3 6 4 12 11 19 15 27 17 11 10 11 10
13 16 16 15 15 16 16 17 17 16 5 3 7 6 8 5 8 14 12 16 6 8 8 6 3 2 6 3 2 6 2 3 3 6 23 22 19 14 7 19 21 21 7 9 13
13 15 15 13 14 15 17 8 3 2 4 7 4 4 5 5 5 4 12 12 6 5 6 9 2 7 16 8 5 19 6 6 4 20 10 10 17 10 7 18 7 12 9 11 11
14 14 13 13 13 13 13 4 8 8 7 12 18 15 27 1 3 8 11 3 4 7 8 6 8 16 3 6 1 6 4 5 12 13 7 9 6 6 5 6 7 12 9 4 8
16 14 13 13 13 14 8 13 9 14 3 8 7 9 8 9 8 9 9 7 7 9 11 8 13 3 5 7 6 6 9 7 13 13 13 10 8 7 6 3 4 2 1 7 10
14 12 11 11 9 7 9 6 10 6 2 5 7 6 6 6 4 14 18 8 5 13 9 11 5 3 6 8 8 8 13 17 14 4 5 4 3 5 6 9 4 6 9 6 9
14 11 9 8 13 7 13 11 13 3 2 11 8 3 5 6 2 5 18 7 13 15 11 4 5 9 7 5 6 5 15 9 6 7 7 6 5 7 7 6 7 8 9 8 9
16 12 8 6 10 9 10 12 7 2 5 7 6 5 4 9 11 5 5 2 5 11 20 5 8 7 3 7 5 4 6 4 6 5 4 1 4 6 4 8 2 8 6 8 10
18 15 10 10 5 13 17 7 2 3 7 10 8 9 6 8 12 5 6 5 5 6 5 12 3 7 5 4 5 9 6 4 4 4 4 9 5 8 13 10 12 9 8 9 9
19 20 11 16 12 10 14 3 4 9 12 14 12 11 10 11 8 8 7 6 8 5 1 3 7 6 4 4 2 6 4 4 3 4 4 10 0 6 9 14 12 8 9 9 10
20 13 8 14 6 4 3 2 4 5 11 3 14 12 9 8 6 6 6 7 8 8 6 4 5 11 8 3 2 6 5 5 3 1 5 3 4 5 7 14 10 11 10 7 9
17 8 15 14 12 8 1 4 4 6 9 8 4 11 9 12 8 4 5 5 8 2 10 4 3 16 6 2 2 2 4 5 5 3 4 2 5 6 8 7 8 12 10 6 8
6 3 8 15 11 2 3 6 6 1 4 5 7 7 3 7 8 3 5 10 1 7 9 11 6 7 9 4 5 7 5 5 2 3 2 4 3 8 16 7 8 9 8 9 9
4 3 12 15 2 3 4 5 7 3 3 3 4 5 4 4 6 7 3 1 7 6 4 3 5 3 2 6 3 3 5 5 4 6 2 5 4 4 9 6 11 10 9 8 10
2 3 9 12 2 4 6 15 17 19 3 5 3 5 8 3 3 1 5 7 7 5 5 1 2 3 8 6 5 2 4 5 2 2 3 4 1 7 14 16 8 9 9 8 10
2 3 1 2 4 3 7 9 11 4 5 7 4 5 6 4 0 3 3 3 5 4 2 8 3 5 6 6 3 4 5 6 5 3 2 4 7 10 9 11 6 3 8 9 10
3 4 3 4 5 6 6 8 12 6 7 4 6 4 5 3 5 1 6 4 5 2 1 4 2 4 3 8 6 5 4 8 6 5 6 5 7 10 12 15 16 7 8 10 11
2 3 5 6 6 8 8 7 12 8 6 6 6 9 7 4 4 2 5 4 4 2 1 2 0 3 5 8 6 5 6 6 6 9 7 8 5 9 13 12 8 8 13 10 11
8 8 2 7 4 4 6 9 8 9 8 9 8 6 6 10 7 6 2 8 9 8 4 5 3 3 4 10 12 7 3 7 7 6 7 5 5 7 6 9 9 9 12 10 10
Wind_Direction
318 318 317 315 317 318 318 318 319 321 322 324 329 333 333 329 327 328 271 272 227 274 312 289 282 265 258 262 260 259 24 184 104 106 145 95 90 354 355 105 340 41 73 101 101
315 316 314 316 317 317 317 316 316 319 321 324 329 332 333 330 326 279 261 250 276 274 270 267 288 297 267 270 269 172 119 10 102 138 134 142 98 109 327 322 131 78 79 73 44
314 314 314 315 317 317 316 315 314 317 320 325 329 333 333 325 315 261 193 244 280 246 231 288 284 285 286 283 260 8 107 101 112 125 121 124 106 127 357 320 247 114 101 88 73
312 314 314 318 318 316 317 314 313 316 319 325 329 335 337 336 26 219 236 216 243 235 282 308 308 313 304 292 15 72 109 90 105 115 129 137 118 64 157 243 63 110 88 81 95
311 315 317 321 320 319 316 313 312 315 318 326 330 341 351 312 251 269 241 193 212 216 243 267 294 294 304 340 74 94 96 77 117 153 151 122 122 128 231 232 102 105 97 111 116
316 318 322 323 321 317 314 313 310 312 316 323 330 341 330 290 71 33 121 186 210 212 251 248 253 290 34 51 65 97 97 122 132 311 89 119 149 137 336 117 105 119 111 116 112
316 322 324 326 323 316 313 312 307 309 311 318 329 351 290 242 317 297 198 236 234 223 251 277 322 16 338 355 94 130 112 139 118 230 340 356 88 113 128 125 123 94 89 81 94
324 325 327 328 322 314 312 310 307 305 306 313 321 333 255 290 270 281 220 230 238 248 250 287 306 306 282 210 26 70 63 52 143 103 298 44 83 42 103 107 95 86 82 88 109
326 326 326 323 320 315 314 308 306 300 304 305 327 168 271 315 244 228 219 239 223 252 260 274 289 259 315 80 54 18 50 303 314 142 213 50 37 13 3 55 40 94 115 116 111
326 324 322 322 320 317 315 310 295 296 316 299 264 311 272 250 236 207 215 239 212 240 269 251 263 234 299 76 212 153 201 249 168 95 62 62 60 49 17 52 358 334 275 118 91
327 326 323 322 319 319 325 328 345 11 231 212 193 269 245 222 75 207 217 233 220 274 253 272 231 236 228 233 220 182 158 198 103 140 101 105 76 35 96 110 130 85 41 96 111
331 330 324 321 317 313 314 280 329 312 307 251 245 265 261 260 198 241 205 201 208 248 262 312 248 259 155 236 73 47 94 93 70 100 80 82 129 123 59 121 176 131 141 194 115
336 332 325 323 318 304 259 260 319 312 298 290 231 244 245 219 240 216 170 211 232 235 258 233 260 209 290 38 72 50 78 49 118 85 53 87 4 3 333 130 189 109 171 200 140
339 330 323 322 314 311 247 320 320 20 315 251 194 240 240 216 258 213 187 206 244 248 264 262 231 148 65 56 47 62 92 100 158 97 103 309 287 273 285 339 353 287 305 173 117
346 330 317 307 304 310 322 341 342 321 321 153 181 236 191 193 263 219 193 234 256 285 310 258 30 80 83 68 53 154 121 136 110 83 93 12 98 287 340 313 299 302 273 133 129
347 332 310 312 284 278 312 318 304 17 246 165 146 207 160 223 253 199 191 260 301 285 287 231 146 108 89 82 78 294 146 58 74 116 47 241 108 276 235 214 326 283 192 129 105
342 329 291 260 246 320 325 321 352 223 155 146 167 155 195 244 246 208 179 248 230 344 359 343 160 106 83 13 29 16 9 343 17 40 194 146 113 243 218 232 202 211 107 105 107
330 320 286 262 270 305 326 12 244 289 281 162 161 161 194 215 239 253 180 216 270 250 352 80 332 25 71 56 41 305 119 131 288 163 164 158 46 295 198 213 202 143 107 97 101
325 323 279 281 220 275 35 245 232 308 325 81 155 156 209 212 220 219 174 208 241 230 138 144 302 312 72 357 88 304 1 232 187 325 93 75 326 335 161 171 138 118 99 109 113
329 295 261 247 189 205 84 257 278 287 347 8 341 171 186 188 195 215 177 253 252 127 123 33 38 287 174 247 185 237 260 9 2 6 75 358 78 301 269 150 150 128 123 125 118
319 283 133 151 150 68 209 246 304 259 56 337 6 338 276 157 161 234 213 268 72 165 111 153 137 330 57 5 352 356 13 20 93 64 89 149 219 233 231 168 143 133 130 111 111
304 298 167 143 90 214 232 258 265 9 143 305 349 300 288 192 172 203 246 285 133 104 43 26 129 94 197 290 323 335 108 91 107 311 303 115 289 266 128 133 110 114 102 105 105
273 251 174 180 208 247 267 272 277 284 246 181 244 264 317 32 133 58 94 304 52 67 114 18 355 95 343 3 337 292 140 116 144 74 290 98 180 98 84 55 14 124 126 117 112
284 273 215 183 249 296 311 280 266 250 326 325 222 258 331 358 0 86 131 43 44 86 194 93 49 131 173 210 286 256 179 174 118 69 335 56 102 95 111 122 212 241 140 131 124
240 267 288 202 240 228 252 286 298 254 194 270 311 232 267 310 341 53 115 105 82 27 91 101 100 352 287 244 250 321 320 105 90 56 87 132 109 150 163 167 199 169 135 122 117
301 342 339 290 195 196 233 266 271 257 173 201 228 282 218 244 237 317 153 155 185 143 54 33 124 14 288 345 318 229 292 130 124 115 76 97 80 117 145 164 149 171 122 119 119
3 329 318 281 290 195 247 260 273 254 270 164 197 229 244 243 251 265 196 206 171 146 167 133 110 71 293 47 359 329 2 106 109 93 115 95 139 98 136 155 168 150 126 122 123